Lid_Strength_Index
7 7 7 7 6 5 6 6 7 7 7 7 8 8 8 8 8 8 8 4 3 3 2 2 1 -1 -1 -1 -1 -1 -1 -1 -2 -2 -2 -2 -2 -2 -2 -2 -2 -2 -2
7 7 7 7 6 6 5 6 6 7 8 8 8 7 8 8 8 8 8 8 3 3 3 3 2 2 1 -1 -1 -1 -1 -1 -1 -2 -2 -2 -2 -2 -2 -2 -2 -2 -2
7 7 7 7 7 6 5 5 5 6 7 8 8 8 7 7 7 8 8 7 7 4 3 3 3 3 2 2 -0 -1 -1 -1 -1 -1 -1 -2 -2 -2 -2 -2 -2 -2 -2
7 7 7 7 6 6 6 6 6 6 6 7 9 9 8 8 8 8 7 8 7 7 5 4 3 3 3 2 2 1 -0 -1 -1 -1 -1 -1 -1 -2 -2 -2 -2 -2 -2
7 8 7 7 7 7 6 6 5 5 6 7 7 8 8 9 8 7 8 7 7 7 7 5 3 3 4 4 3 2 2 1 -1 -1 -1 -1 -1 -1 -1 -2 -2 -2 -2
6 6 7 7 7 7 7 7 7 5 5 6 6 6 8 8 9 9 8 7 8 7 7 7 8 7 3 2 3 3 3 2 1 0 -1 -1 -1 -1 -1 -1 -2 -2 -2
7 6 6 7 7 8 7 7 7 6 5 6 7 8 8 8 9 9 9 9 8 8 8 7 7 7 6 2 3 2 0 1 2 1 0 -0 -1 -1 -1 -1 -1 -1 -2
7 7 6 5 6 7 8 7 7 6 5 4 6 7 10 9 9 9 9 9 10 9 8 7 7 7 7 7 5 2 1 1 -0 1 0 -1 -1 -1 -1 -1 -1 -1 -1
6 6 6 6 5 7 8 8 7 7 6 5 5 6 9 10 9 9 9 9 9 10 9 8 8 7 8 8 5 2 0 1 0 -1 1 1 -1 -2 -2 -1 -1 -1 -1
7 6 5 5 5 5 8 8 7 7 6 6 5 4 6 7 9 10 9 10 10 9 10 9 8 8 8 6 3 2 2 2 2 2 0 -0 0 -1 -1 -2 -1 -1 -1
6 6 5 5 5 5 6 6 7 8 6 5 5 6 6 6 7 8 10 10 9 9 9 9 9 9 7 8 7 5 3 3 3 3 1 0 -1 -1 -1 -2 -1 -1 -1
6 6 5 5 4 4 5 6 7 8 8 6 5 5 5 7 7 8 9 9 9 9 9 9 9 9 8 7 5 4 3 2 2 2 1 0 -0 -1 -2 -2 -2 -1 -1
7 6 6 5 4 4 4 4 6 6 7 7 7 5 4 5 5 5 6 7 8 8 9 9 9 9 8 8 7 3 3 3 3 2 2 1 1 1 -0 -1 -2 -2 -1
6 5 5 5 4 3 4 4 4 5 6 7 7 7 5 4 4 4 5 6 9 8 8 9 8 8 8 8 5 3 5 4 4 3 3 3 2 2 1 0 -1 -1 -1
6 5 4 5 5 4 4 4 3 4 4 5 6 6 7 6 5 5 4 4 6 9 9 8 8 7 7 7 6 6 6 4 3 3 3 3 3 2 1 1 -0 -1 -1
6 5 5 5 5 4 3 4 4 4 4 4 4 4 5 5 5 5 5 5 4 6 8 7 7 6 6 5 5 6 7 4 4 4 4 4 3 2 2 1 0 -1 -1
5 6 6 5 5 4 3 3 3 3 4 4 3 4 4 4 5 5 4 5 6 5 7 7 6 6 6 6 6 7 7 9 9 6 5 4 4 3 2 1 0 -0 -1
6 6 5 6 5 5 4 3 4 3 4 4 4 3 3 3 4 4 4 4 5 5 6 7 6 6 5 5 6 8 7 8 10 8 5 4 4 3 2 1 1 0 -0
7 5 6 6 5 5 5 4 3 3 4 3 3 3 3 3 4 5 4 4 4 3 5 6 6 5 6 7 7 8 9 11 10 8 7 5 2 0 1 1 1 1 0
7 6 5 5 5 5 5 4 3 3 4 3 2 3 3 3 3 4 4 4 4 4 4 6 6 6 6 6 7 10 12 11 12 11 10 7 4 1 0 0 0 0 0
6 5 6 6 5 5 5 5 4 4 4 3 3 2 3 3 1 2 3 4 5 5 5 6 7 7 7 7 9 12 12 9 10 10 12 10 9 8 5 3 2 2 3
8 6 6 5 6 5 2 3 3 4 4 4 4 3 3 2 2 0 0 0 3 6 6 6 5 7 8 9 8 8 8 8 9 9 12 12 10 9 8 6 4 4 5
8 8 6 6 5 6 3 2 2 4 4 4 4 3 4 2 2 3 2 2 2 2 1 4 6 7 8 8 8 8 8 8 10 10 10 12 11 10 8 7 6 6 6
9 7 6 5 5 4 3 4 4 6 5 5 5 4 4 3 3 5 5 5 5 6 7 6 7 7 8 8 7 8 8 9 9 10 10 11 11 12 9 8 6 7 7
7 7 6 5 5 4 3 3 5 6 7 7 6 7 7 6 4 5 8 9 8 8 4 4 4 5 4 5 7 8 9 9 10 10 10 10 11 12 11 11 8 7 7
7 7 7 7 4 4 3 3 5 6 7 6 6 5 4 5 4 5 9 9 10 10 9 9 9 8 7 6 6 8 8 10 10 11 9 10 11 11 12 12 12 9 9